Location: �mondeville
(49.4591°N, 1.3431°W)
Time: 14:10:36
(UTC+00:00)

Cosmos 1626 Rocket - Visible Passes

Search period start: 18 January 2020 00:00
Search period end: 28 January 2020 00:00
Orbit: 602 x 632 km, 82.5° (Epoch: 18 January)

Date Brightness Start Highest point End Pass type
(mag) Time Alt. Az. Time Alt. Az. Time Alt. Az.
18 Jan 6.4 04:09:50 14° ESE 04:09:50 14° ESE 04:10:36 10° ESE visible
18 Jan 4.8 05:47:01 26° SW 05:47:01 26° SW 05:49:11 10° SSW visible
18 Jan 3.5 18:15:57 10° S 18:20:19 83° W 18:24:40 10° N visible
18 Jan 6.7 19:57:43 10° WNW 19:58:53 11° WNW 20:00:05 10° NW visible
19 Jan 6.2 04:27:39 13° SE 04:27:39 13° SE 04:28:06 10° SE visible
19 Jan 5.7 06:04:51 12° SW 06:04:51 12° SW 06:05:10 10° SW visible
19 Jan 4.5 18:32:54 10° SSW 18:37:06 47° WNW 18:41:18 10° N visible
20 Jan 4.3 17:12:17 10° SSE 17:16:08 32° E 17:19:59 10° NNE visible
20 Jan 5.5 18:50:13 10° SW 18:53:58 28° WNW 18:57:45 10° N visible
21 Jan 3.6 17:28:31 10° S 17:32:45 55° E 17:36:59 10° NNE visible
21 Jan 6.3 19:08:00 10° WSW 19:10:57 18° WNW 19:13:55 10° NNW visible
22 Jan 3.6 17:45:07 10° S 17:49:27 84° W 17:53:48 10° N visible
22 Jan 6.7 19:26:50 10° WNW 19:28:02 11° WNW 19:29:13 10° NW visible
23 Jan 4.5 18:02:03 10° SSW 18:06:14 48° WNW 18:10:26 10° N visible
24 Jan 5.5 18:19:21 10° SW 18:23:07 28° WNW 18:26:53 10° N visible
25 Jan 6.3 18:37:07 10° WSW 18:40:05 18° WNW 18:43:03 10° NNW visible
26 Jan 6.6 18:55:57 10° WNW 18:57:10 11° WNW 18:58:23 10° NW visible
27 Jan 4.6 17:31:12 10° SSW 17:35:22 48° WNW 17:39:34 10° N visible
